Flag for France Weather past 2 weeks in Taiohae, Marquesas Islands, France

Now
84 °F

Scattered clouds.


Feels Like: 88 °F
Forecast: 78 / 80 °F
Wind: 14 mph from East

Location: Atuona

Current Time: Sep 23, 2014 at 11:51:54 AM

Latest Report: Sep 23, 2014 at 10:30 AM


Visibility: 25 mi

Pressure: 29.98 "Hg

Humidity: 61%

Dew point: 69 °F

Location of TaiohaeLocation

Historic Weather in Taiohae — Graph

°F

Taiohae temperature yesterday

Maximum temperature yesterday: 80 °F (at 10:30 AM)
Minimum temperature yesterday: 73 °F (at 12:30 AM)
Average temperature yesterday: 77 °F

Past Weeks' High & Low Weather Summary

 TemperatureHumidityPressure
High87 °F (Sep 21, 11:30 AM)95% (Sep 10, 6:30 AM)30.01 "Hg (Sep 10, 6:30 AM)
Low71 °F (Sep 20, 3:30 AM)50% (Sep 21, 11:30 AM)29.80 "Hg (Sep 13, 3:30 PM)
Average77 °F79%29.91 "Hg
* Reported Sep 8 10:30 AM — Sep 23 10:30 AM, Taiohae, Weather by CustomWeather, © 2014

Note: Actual official high and low records may vary slightly from our data, if they occured in-between our weather recording intervals... More about our weather records

Advertising

Taiohae weather history for previous 24 hours

 ConditionsComfort  
Time TempWeatherWind HumidityBarometerVisibility
10:30 AM
Sep 23
84 °FScattered clouds.14 mph61%29.98 "Hg25 mi
9:30 AM83 °FScattered clouds.13 mph64%29.99 "Hg25 mi
8:30 AM81 °FScattered clouds.13 mph71%30.00 "Hg25 mi
7:30 AM79 °FPartly sunny.17 mph71%29.98 "Hg25 mi
6:30 AM78 °FScattered clouds.15 mph74%29.96 "Hg25 mi
5:30 AM77 °FScattered clouds.12 mph80%29.93 "Hg25 mi
4:30 AM77 °FWarm.15 mph76%29.92 "HgN/A
3:30 AM78 °FWarm.13 mph74%29.92 "HgN/A
2:30 AM78 °FWarm.16 mph79%29.91 "HgN/A
1:30 AM78 °FWarm.14 mph76%29.93 "HgN/A
12:30 AM78 °FWarm.15 mph78%29.94 "HgN/A
11:30 PM
Sep 22
78 °FWarm.14 mph76%29.96 "HgN/A
10:30 PM78 °FWarm.14 mph77%29.98 "HgN/A
8:30 PM78 °FWarm.12 mph78%29.95 "HgN/A
7:30 PM78 °FWarm.12 mph78%29.94 "HgN/A
6:30 PM79 °FWarm.15 mph77%29.91 "HgN/A
5:30 PM78 °FWarm.16 mph73%29.90 "HgN/A
4:30 PM79 °FScattered clouds.15 mph75%29.88 "Hg9 mi
3:30 PM79 °FScattered clouds.15 mph76%29.87 "Hg9 mi
2:30 PM79 °FScattered clouds.16 mph74%29.88 "Hg9 mi
1:30 PM79 °FScattered clouds.16 mph75%29.89 "Hg19 mi
12:30 PM79 °FOvercast.12 mph76%29.93 "Hg9 mi
11:30 AM79 °FOvercast.15 mph75%29.96 "Hg9 mi
Weather by CustomWeather, © 2014

See weather overviewHow to use our weather pages